Location: Ottawa
(45.4167°N, 75.7000°W)
Time: 07:10:36
(UTC-05:00)

Envisat - Pass Details

Date: 15 October 2017
Orbit: 764 x 766 km, 98.2° (Epoch: 17 December)

Event Time Altitude Azimuth Distance (km) Brightness Sun altitude
Exits shadow 21:23:16 42° 279° (W) 1,086 4.1 -32.9°
Drops below altitude 10° 21:27:36 10° 334° (NNW) 2,315 6.0 -33.6°
Sets 21:30:02 0° 341° (NNW) 3,246 6.8 -34.0°
